�������l�o���
Date,Time,MP-1(��Sv/h),MP-2(��Sv/h),MP-3(��Sv/h),MP-4(��Sv/h),MP-5(��Sv/h),MP-6(��Sv/h),MP-7(��Sv/h),MP-8(��Sv/h),����,����(m/s),���J
2022/03/25,00:00,0.567,0.833,0.537,1.002,0.716,0.342,0.593,0.562,�k�k��,8.4,��
2022/03/25,00:10,0.563,0.835,0.539,1.004,0.716,0.341,0.593,0.563,�k��,7.7,��
2022/03/25,00:20,0.565,0.835,0.537,1.005,0.715,0.342,0.593,0.564,���k��,8.0,��
2022/03/25,00:30,0.566,0.833,0.538,1.006,0.714,0.341,0.594,0.562,���k��,4.4,��
2022/03/25,00:40,0.566,0.834,0.538,1.004,0.713,0.341,0.593,0.563,���k��,4.2,��
2022/03/25,00:50,0.565,0.832,0.538,1.007,0.711,0.341,0.592,0.563,�k��,6.3,��
2022/03/25,01:00,0.564,0.833,0.537,1.005,0.715,0.341,0.591,0.562,�k��,4.8,��
2022/03/25,01:10,0.565,0.835,0.538,1.004,0.716,0.342,0.595,0.564,�k��,2.9,��
2022/03/25,01:20,0.567,0.834,0.537,1.005,0.714,0.342,0.594,0.565,���k��,3.6,��
2022/03/25,01:30,0.565,0.834,0.537,1.005,0.714,0.343,0.594,0.563,�k��,6.0,��
2022/03/25,01:40,0.566,0.836,0.537,1.007,0.713,0.342,0.594,0.564,�k��,5.1,��
2022/03/25,01:50,0.564,0.834,0.538,1.009,0.715,0.340,0.593,0.562,�k�k��,3.2,��
2022/03/25,02:00,0.566,0.833,0.538,1.008,0.713,0.342,0.593,0.563,-,CALM,��
2022/03/25,02:10,0.565,0.834,0.539,1.007,0.714,0.341,0.595,0.564,�k��,2.6,��
2022/03/25,02:20,0.565,0.834,0.537,1.004,0.714,0.342,0.593,0.563,�k,0.6,��
2022/03/25,02:30,0.566,0.835,0.536,1.007,0.716,0.342,0.593,0.563,�k�k��,1.5,��
2022/03/25,02:40,0.566,0.832,0.539,1.007,0.716,0.343,0.593,0.564,���k��,2.2,��
2022/03/25,02:50,0.565,0.835,0.539,1.005,0.715,0.342,0.593,0.563,�k��,2.6,��
2022/03/25,03:00,0.567,0.833,0.536,1.006,0.712,0.342,0.594,0.563,�k��,3.2,��
2022/03/25,03:10,0.566,0.836,0.537,1.007,0.714,0.341,0.594,0.563,�k��,3.0,��
2022/03/25,03:20,0.566,0.836,0.537,1.007,0.714,0.341,0.593,0.563,�k�k��,1.9,��
2022/03/25,03:30,0.565,0.834,0.537,1.007,0.715,0.341,0.593,0.563,�k��,0.8,��
2022/03/25,03:40,0.567,0.833,0.539,1.008,0.713,0.343,0.593,0.565,�k,1.2,��
2022/03/25,03:50,0.564,0.834,0.537,1.005,0.714,0.341,0.593,0.563,�k��,2.3,��
2022/03/25,04:00,0.565,0.835,0.536,1.006,0.715,0.340,0.591,0.562,�k��,2.0,��
2022/03/25,04:10,0.564,0.834,0.537,1.008,0.716,0.341,0.593,0.563,�k�k��,1.5,��
2022/03/25,04:20,0.566,0.832,0.538,1.008,0.715,0.342,0.593,0.563,���k��,0.8,��
2022/03/25,04:30,0.566,0.833,0.538,1.006,0.713,0.342,0.592,0.561,��,0.9,��
2022/03/25,04:40,0.564,0.833,0.538,1.008,0.714,0.342,0.593,0.562,�쓌,1.2,��
2022/03/25,04:50,0.566,0.833,0.536,1.009,0.714,0.342,0.592,0.563,��쓌,1.7,��
2022/03/25,05:00,0.565,0.834,0.537,1.010,0.716,0.342,0.591,0.562,��쐼,3.8,��
2022/03/25,05:10,0.566,0.833,0.539,1.007,0.716,0.342,0.593,0.563,��,3.9,��
2022/03/25,05:20,0.564,0.834,0.538,1.009,0.715,0.340,0.590,0.563,��,4.0,��
2022/03/25,05:30,0.564,0.834,0.537,1.007,0.713,0.342,0.593,0.562,��,2.9,��
2022/03/25,05:40,0.566,0.834,0.537,1.009,0.715,0.340,0.593,0.563,��,3.0,��
2022/03/25,05:50,0.565,0.834,0.538,1.009,0.715,0.342,0.592,0.562,��,1.5,��
2022/03/25,06:00,0.565,0.833,0.537,1.007,0.712,0.340,0.593,0.563,�쐼,2.0,��
2022/03/25,06:10,0.566,0.834,0.537,1.008,0.715,0.341,0.593,0.563,��쐼,2.2,��
2022/03/25,06:20,0.566,0.836,0.536,1.009,0.716,0.341,0.591,0.563,��,2.2,��
2022/03/25,06:30,0.564,0.834,0.538,1.008,0.715,0.341,0.593,0.562,��,2.3,��
2022/03/25,06:40,0.565,0.835,0.537,1.007,0.715,0.340,0.592,0.563,���쐼,2.8,��
2022/03/25,06:50,0.564,0.835,0.536,1.007,0.715,0.341,0.593,0.562,��,4.0,��
2022/03/25,07:00,0.565,0.837,0.537,1.009,0.714,0.340,0.591,0.563,��,3.2,��
2022/03/25,07:10,0.565,0.834,0.537,1.010,0.716,0.342,0.594,0.564,��,4.2,��
2022/03/25,07:20,0.567,0.834,0.538,1.011,0.715,0.341,0.593,0.562,��,4.7,��
2022/03/25,07:30,0.565,0.835,0.536,1.010,0.715,0.341,0.593,0.563,��,4.5,��
2022/03/25,07:40,0.567,0.836,0.537,1.013,0.715,0.342,0.593,0.562,��,5.0,��
2022/03/25,07:50,0.567,0.837,0.538,1.012,0.715,0.339,0.594,0.562,��,3.6,��
2022/03/25,08:00,0.566,0.838,0.538,1.012,0.716,0.340,0.594,0.564,��,1.7,��
2022/03/25,08:10,0.568,0.837,0.537,1.012,0.716,0.340,0.593,0.563,��,3.8,��
2022/03/25,08:20,0.566,0.834,0.539,1.010,0.714,0.340,0.597,0.564,�k��,3.5,��
2022/03/25,08:30,0.565,0.835,0.539,1.013,0.717,0.341,0.595,0.564,���k��,1.2,��
2022/03/25,08:40,0.559,0.836,0.540,1.012,0.715,0.340,0.594,0.562,�k��,0.8,��
2022/03/25,08:50,0.562,0.832,0.538,1.009,0.716,0.341,0.594,0.564,��쓌,1.7,��
2022/03/25,09:00,0.562,0.833,0.539,1.011,0.718,0.341,0.592,0.564,��,1.7,��
2022/03/25,09:10,0.563,0.833,0.541,1.014,0.716,0.341,0.593,0.564,���쓌,3.6,��
2022/03/25,09:20,0.562,0.833,0.538,1.012,0.716,0.342,0.592,0.562,�쓌,3.2,��
2022/03/25,09:30,0.562,0.833,0.539,1.012,0.718,0.341,0.593,0.562,���쓌,3.0,��
2022/03/25,09:40,0.562,0.834,0.539,1.015,0.718,0.340,0.593,0.562,���쓌,4.7,��
2022/03/25,09:50,0.561,0.835,0.540,1.014,0.718,0.340,0.594,0.563,���쓌,3.4,��
2022/03/25,10:00,0.562,0.833,0.539,1.014,0.718,0.340,0.593,0.562,�쓌,4.3,��
2022/03/25,10:10,0.561,0.834,0.538,1.014,0.717,0.341,0.592,0.560,���쓌,4.4,��
2022/03/25,10:20,0.560,0.835,0.540,1.016,0.716,0.341,0.594,0.560,���쓌,3.3,��
2022/03/25,10:30,0.562,0.835,0.540,1.015,0.718,0.340,0.594,0.560,���쓌,4.2,��
2022/03/25,10:40,0.561,0.835,0.541,1.015,0.719,0.341,0.594,0.562,���쓌,2.6,��
2022/03/25,10:50,0.569,0.836,0.541,1.015,0.718,0.340,0.592,0.561,���쓌,4.7,��
2022/03/25,11:00,0.567,0.834,0.540,1.015,0.719,0.342,0.593,0.562,���쓌,4.4,��
2022/03/25,11:10,0.567,0.834,0.540,1.016,0.719,0.341,0.593,0.561,���쓌,5.9,��
2022/03/25,11:20,0.568,0.835,0.538,1.016,0.720,0.341,0.592,0.562,���쓌,7.0,��
2022/03/25,11:30,0.567,0.836,0.541,1.015,0.718,0.341,0.593,0.560,���쓌,5.9,��
2022/03/25,11:40,0.567,0.836,0.540,1.017,0.719,0.340,0.594,0.562,���쓌,4.3,��
2022/03/25,11:50,0.569,0.837,0.540,1.017,0.719,0.341,0.592,0.562,���쓌,4.8,��
2022/03/25,12:00,0.568,0.838,0.539,1.017,0.720,0.342,0.592,0.561,�쓌,5.4,��
2022/03/25,12:10,0.567,0.838,0.540,1.016,0.719,0.341,0.592,0.563,�쓌,4.3,��
2022/03/25,12:20,0.567,0.840,0.540,1.017,0.720,0.342,0.593,0.562,�쓌,3.7,��
2022/03/25,12:30,0.568,0.839,0.540,1.020,0.721,0.342,0.595,0.562,�쓌,4.2,��
2022/03/25,12:40,0.566,0.841,0.539,1.020,0.719,0.341,0.592,0.561,�쓌,3.8,��
2022/03/25,12:50,0.568,0.842,0.540,1.018,0.718,0.343,0.593,0.561,�쓌,3.9,��
2022/03/25,13:00,0.568,0.838,0.539,1.020,0.719,0.342,0.593,0.562,���쓌,3.4,��
2022/03/25,13:10,0.568,0.839,0.540,1.020,0.719,0.341,0.593,0.562,�쓌,4.1,��
2022/03/25,13:20,0.568,0.839,0.539,1.018,0.719,0.343,0.591,0.563,�쓌,2.6,��
2022/03/25,13:30,0.568,0.838,0.540,1.021,0.720,0.343,0.594,0.562,���쓌,3.9,��
2022/03/25,13:40,0.569,0.837,0.539,1.019,0.719,0.341,0.593,0.563,�쓌,4.4,��
2022/03/25,13:50,0.568,0.839,0.540,1.021,0.720,0.343,0.594,0.564,��쓌,5.3,��
2022/03/25,14:00,0.567,0.838,0.538,1.022,0.721,0.342,0.594,0.562,��쓌,6.2,��
2022/03/25,14:10,0.567,0.837,0.539,1.019,0.722,0.342,0.592,0.563,��쓌,5.5,��
2022/03/25,14:20,0.569,0.837,0.540,1.018,0.720,0.344,0.592,0.563,��쓌,5.7,��
2022/03/25,14:30,0.567,0.837,0.539,1.020,0.722,0.341,0.593,0.562,��쓌,6.9,��
2022/03/25,14:40,0.569,0.840,0.539,1.021,0.723,0.341,0.594,0.563,��쓌,6.4,��
2022/03/25,14:50,0.569,0.841,0.540,1.020,0.723,0.342,0.595,0.563,��쓌,6.7,��
2022/03/25,15:00,0.568,0.842,0.540,1.020,0.723,0.341,0.594,0.562,��쓌,6.7,��
2022/03/25,15:10,0.568,0.842,0.538,1.021,0.721,0.342,0.593,0.564,��쓌,6.7,��
2022/03/25,15:20,0.569,0.842,0.541,1.022,0.725,0.342,0.593,0.561,��쓌,8.0,��
2022/03/25,15:30,0.569,0.842,0.542,1.021,0.721,0.341,0.593,0.562,��쓌,7.5,��
2022/03/25,15:40,0.570,0.843,0.541,1.021,0.724,0.342,0.593,0.562,��쓌,7.4,��
2022/03/25,15:50,0.568,0.845,0.542,1.021,0.724,0.343,0.593,0.561,��쓌,6.7,��
2022/03/25,16:00,0.572,0.845,0.542,1.024,0.722,0.341,0.594,0.563,��쓌,7.2,��
2022/03/25,16:10,0.568,0.845,0.543,1.022,0.722,0.342,0.593,0.563,��쓌,7.0,��
2022/03/25,16:20,0.570,0.844,0.542,1.022,0.721,0.344,0.593,0.563,��쓌,8.0,��
2022/03/25,16:30,0.569,0.843,0.542,1.021,0.720,0.343,0.593,0.563,��쓌,8.1,��
2022/03/25,16:40,0.569,0.844,0.543,1.021,0.725,0.343,0.593,0.563,��쓌,8.1,��
2022/03/25,16:50,0.572,0.844,0.541,1.021,0.722,0.343,0.594,0.566,��쓌,8.8,��
2022/03/25,17:00,0.571,0.845,0.543,1.023,0.723,0.342,0.595,0.566,��쓌,9.1,��
2022/03/25,17:10,0.570,0.847,0.542,1.022,0.721,0.343,0.594,0.564,��쓌,9.1,��
2022/03/25,17:20,0.570,0.844,0.541,1.022,0.724,0.343,0.595,0.565,��쓌,8.8,��
2022/03/25,17:30,0.571,0.843,0.543,1.025,0.724,0.343,0.595,0.566,��,7.5,��
2022/03/25,17:40,0.571,0.844,0.542,1.021,0.723,0.342,0.595,0.567,��,7.8,��
2022/03/25,17:50,0.571,0.843,0.541,1.022,0.725,0.342,0.595,0.566,��,8.3,��
2022/03/25,18:00,0.571,0.843,0.543,1.021,0.724,0.343,0.597,0.565,��,6.9,��
2022/03/25,18:10,0.571,0.843,0.543,1.021,0.723,0.341,0.596,0.565,��,6.1,��
2022/03/25,18:20,0.569,0.847,0.541,1.022,0.725,0.343,0.597,0.564,��,6.2,��
2022/03/25,18:30,0.571,0.844,0.541,1.022,0.723,0.342,0.596,0.565,��쓌,7.2,��
2022/03/25,18:40,0.570,0.844,0.540,1.021,0.725,0.343,0.597,0.565,��쓌,6.7,��
2022/03/25,18:50,0.571,0.844,0.541,1.023,0.724,0.343,0.597,0.564,��쓌,6.3,��
2022/03/25,19:00,0.571,0.844,0.542,1.025,0.725,0.343,0.595,0.563,��쓌,6.1,��
2022/03/25,19:10,0.570,0.845,0.542,1.023,0.724,0.343,0.595,0.565,��,6.0,��
2022/03/25,19:20,0.569,0.845,0.542,1.023,0.724,0.342,0.596,0.565,��쓌,6.6,��
2022/03/25,19:30,0.570,0.843,0.541,1.024,0.724,0.343,0.596,0.564,��,6.9,��
2022/03/25,19:40,0.571,0.846,0.542,1.023,0.723,0.341,0.595,0.565,��쓌,7.4,��
2022/03/25,19:50,0.569,0.847,0.543,1.024,0.725,0.342,0.596,0.564,��쓌,6.8,��
2022/03/25,20:00,0.570,0.846,0.542,1.025,0.724,0.342,0.596,0.564,��쓌,7.2,��
2022/03/25,20:10,0.571,0.848,0.542,1.023,0.726,0.343,0.597,0.565,��쓌,7.3,��
2022/03/25,20:20,0.570,0.846,0.542,1.023,0.725,0.341,0.596,0.564,��쓌,7.9,��
2022/03/25,20:30,0.570,0.844,0.543,1.022,0.726,0.343,0.596,0.564,��쓌,7.2,��
2022/03/25,20:40,0.572,0.845,0.543,1.022,0.725,0.342,0.595,0.566,��쓌,6.0,��
2022/03/25,20:50,0.570,0.846,0.541,1.023,0.727,0.343,0.596,0.564,��쓌,6.2,��
2022/03/25,21:00,0.570,0.846,0.541,1.023,0.725,0.342,0.596,0.566,��,5.1,��
2022/03/25,21:10,0.569,0.846,0.541,1.023,0.725,0.342,0.596,0.564,��쓌,3.6,��
2022/03/25,21:20,0.572,0.847,0.542,1.024,0.724,0.343,0.594,0.565,��,4.5,��
2022/03/25,21:30,0.569,0.844,0.543,1.024,0.725,0.343,0.595,0.565,��쓌,6.0,��
2022/03/25,21:40,0.572,0.846,0.543,1.024,0.724,0.344,0.597,0.565,��쓌,5.6,��
2022/03/25,21:50,0.569,0.846,0.542,1.021,0.725,0.343,0.595,0.565,��쓌,5.3,��
2022/03/25,22:00,0.571,0.846,0.542,1.026,0.725,0.341,0.596,0.565,��쓌,4.0,��
2022/03/25,22:10,0.570,0.845,0.541,1.023,0.726,0.343,0.596,0.565,��,4.1,��
2022/03/25,22:20,0.571,0.844,0.542,1.022,0.725,0.343,0.595,0.564,��,4.2,��
2022/03/25,22:30,0.571,0.844,0.542,1.024,0.725,0.343,0.596,0.564,��,6.2,��
2022/03/25,22:40,0.571,0.845,0.544,1.023,0.724,0.343,0.595,0.565,��,8.0,��
2022/03/25,22:50,0.571,0.845,0.543,1.025,0.724,0.344,0.595,0.567,��,9.9,��
2022/03/25,23:00,0.571,0.844,0.542,1.023,0.724,0.342,0.596,0.564,��,11.1,��
2022/03/25,23:10,0.570,0.843,0.543,1.024,0.725,0.344,0.596,0.565,��,11.4,��
2022/03/25,23:20,0.572,0.844,0.542,1.024,0.726,0.343,0.597,0.565,��,10.5,��
2022/03/25,23:30,0.572,0.845,0.544,1.023,0.725,0.345,0.597,0.565,��,9.4,��
2022/03/25,23:40,0.571,0.846,0.543,1.026,0.725,0.345,0.598,0.565,��,9.7,��
2022/03/25,23:50,0.572,0.846,0.542,1.023,0.725,0.344,0.597,0.567,��,9.4,��
